Tracking 22780 objects as of 11-Apr-2021
HD Live streaming from Space Station
objects crossing your sky now

FALCON 9 R/B


FALCON 9 R/B is no longer on orbit


NORAD ID: 40589
Int'l Code: 2015-021B
Perigee: N/A
Apogee: N/A
Inclination: N/A
Period: N/A
Semi major axis: N/A
RCS: N/A
Launch date: April 14, 2015
Source: United States (US)
Launch site: AIR FORCE EASTERN TEST RANGE (AFETR)
Decay date: 2015-04-22

Note: This is a ROCKET BODY
aabbcc
Your satellite tracking list
Your tracking list is empty




NASA's NSSDC Master Catalog

Two Line Element Set (TLE):
1 40589U 15021B   15112.64641402  .11443910  12575-4  31399-3 0  9997
2 40589 051.6257 358.5569 0018429 075.5734 284.8122 16.43639258  1263
Source of the keplerian elements: AFSPC